Regional Weather Roundup
Issued by NWS

Home | Current Version | Previous Version | Text Only | Print | Product List | Glossary Off
Versions: 1 2 3 4 5 6 7 8 9 10 11 12 13 14 15 16 17 18 19 20 21 22 23 24 25 26 27 28 29 30 31 32 33 34 35 36 37 38 39 40 41 42 43 44 45 46 47 48 49 50

000
ASUS43 KIND 232009
RWRIN

WEATHER ROUNDUP FOR INDIANA
NATIONAL WEATHER SERVICE INDIANAPOLIS IN
400 PM EDT SAT MAY 23 2015

NOTE: "FAIR" INDICATES FEW OR NO CLOUDS BELOW 12,000 FEET WITH NO
SIGNIFICANT WEATHER AND/OR OBSTRUCTIONS TO VISIBILITY.

* - STATION DOES NOT REPORT WEATHER SUCH AS PRECIPITATION OR FOG.

+ - STATION NOT QUALITY CONTROLLED BY THE NATIONAL WEATHER SERVICE.
    USE DATA WITH CAUTION...ESPECIALLY DEWPOINT AND RELATIVE
    HUMIDITY OBSERVATIONS.

INZ001>003-010>013-019-020-232100-
NORTHWEST INDIANA

CITY           SKY/WX    TMP DP  RH WIND       PRES   REMARKS
GARY /AIRPORT/ MOSUNNY  N/A N/A N/A S12       30.26F
KNOX *+        SUNNY     81  43  26 SW10      30.26F
LA PORTE +     MOSUNNY   80  40  24 S5        30.28F
MICHIGAN CITY+ MOSUNNY   77  43  29 N7        30.27F
MONTICELLO +   MOSUNNY   79  49  35 SW8       30.28F
RENSSELAER +   MOSUNNY   81  41  24 S14G20    30.28F
VALPARAISO     SUNNY     80  40  23 W7        30.27F

$$

LMZ046-743>745-232100-
SOUTHERN LAKE MICHIGAN

STATION/POSITION TIME  TEMP    WIND        PRES    WAVE
                       AIR SEA DIR/SP/G            HT
                 (UTC) (F)     (DEG/KT/KT) (MB)    (FT)
BURNS HARBOR     2000   63      70/  9/ 10 1025.4S
MICHIGAN CITY    2000   62      20/  7/  8   N/A
5NW MICH CITY    2000   59 55   30/  6/  8   N/A     0

$$

INZ004-005-014>016-021>024-232100-
NORTH CENTRAL INDIANA

CITY           SKY/WX    TMP DP  RH WIND       PRES   REMARKS
ELKHART        SUNNY     79  39  24 S6        30.30F
GOSHEN         MOSUNNY   77  49  37 VRB3      30.29F
LOGANSPORT +   MOSUNNY   77  36  22 SW8       30.30F
PERU/GRISSOM   MOSUNNY   80  47  31 SW8       30.28F
ROCHESTER +    SUNNY     81  43  26 SW3       30.30F
SOUTH BEND     PTSUNNY   80  40  23 VRB5      30.29F
WARSAW +       SUNNY     77  45  31 SW5       30.30F

$$

INZ006>009-017-018-025>027-232100-
NORTHEAST INDIANA

CITY           SKY/WX    TMP DP  RH WIND       PRES   REMARKS
ANGOLA *+      SUNNY     79  72  78 W6        30.32F
AUBURN +         N/A     77  41  27 CALM      30.32F
FORT WAYNE     PTSUNNY   79  45  29 SW5       30.31F
HUNTINGTON +   MOSUNNY   78  46  32 W5        30.31F

$$

INZ028-029-035-036-043>045-051>053-232100-
WEST CENTRAL INDIANA

CITY           SKY/WX    TMP DP  RH WIND       PRES   REMARKS
CRAWFORDSVL +  MOSUNNY   76  35  21 SE14      30.30F
GREENCASTLE +  SUNNY     75  43  31 S8        30.31F
LAFAYETTE      PTSUNNY   78  44  29 S8        30.28F
TERRE HAUTE    FAIR      77  49  37 S9        30.30F

$$

INZ030>032-037>040-046>048-054>057-064-065-232100-
CENTRAL INDIANA

CITY           SKY/WX    TMP DP  RH WIND       PRES   REMARKS
ANDERSON       MOSUNNY   77  36  22 SE6       30.33F
CP ATTERBURY + MOSUNNY   77  46  33 SW10      30.33F
COLUMBUS       MOSUNNY   77  37  24 S13       30.32F
FISHERS *+     SUNNY     77  54  44 SW12      30.30F
FRANKFORT +    SUNNY     81  44  27 SE9G17    30.31F
GREENWOOD *+   SUNNY     79  36  21 S12       30.32
INDIANAPOLIS   MOSUNNY   79  46  31 S9        30.29F
-EAGLE CREEK   SUNNY     78  44  29 SW7       30.30F
KOKOMO *+      MOSUNNY   79  46  31 S10       30.30F
MARION +       PTSUNNY   77  42  28 S10G22    30.32F
MT COMFORT *+  SUNNY     81  16   9 S13G18    30.32F
SHELBYVILLE    SUNNY     82  43  25 S13G18    30.31F
ZIONSVILLE +   MOSUNNY   79  40  24 SE5       30.31F

$$

INZ033-034-041-042-049-050-058-059-232100-
EAST CENTRAL INDIANA

CITY           SKY/WX    TMP DP  RH WIND       PRES   REMARKS
MUNCIE         MOSUNNY   79  43  27 SW8       30.32F

$$

INZ060-061-067>069-081>083-085>088-232100-
SOUTHWEST INDIANA

CITY           SKY/WX    TMP DP  RH WIND       PRES   REMARKS
EVANSVILLE     MOSUNNY   77  47  34 SE3       30.30F
HUNTINGBURG *+ MOSUNNY   79  46  31 S7        30.31F
WASHINGTON +   SUNNY     78  37  23 S9        30.30F

$$

INZ062-063-066-070>080-084-089>092-232100-
SOUTH CENTRAL AND SOUTHEAST INDIANA

CITY           SKY/WX    TMP DP  RH WIND       PRES   REMARKS
BLOOMINGTON    MOSUNNY   77  45  32 SE9       30.31F
MADISON *+     SUNNY     79  43  27 S8        30.35F
NORTH VERNON + SUNNY     79  45  29 S8        30.33F
SEYMOUR +      MOSUNNY   81  50  34 S7        30.32F

$$




USA.gov is the U.S. government's official web portal to all federal, state and local government web resources and services.